Location: Rioux
(40.7500°S, 175.7500°E)
Time: 09:28:32
(UTC+00:00)

PSLV R/B - Pass Details

Date: 12 June 2024
Orbit: 578 x 607 km, 98.1° (Epoch: 20 July)

Event Time Altitude Azimuth Distance (km) Brightness Sun altitude
Rises 17:03:47 0° 25° (NNE) 2,868 7.4 -28.4°
Reaches altitude 10° 17:05:59 10° 29° (NNE) 1,971 6.5 -28.0°
Maximum altitude 17:10:11 55° 107° (ESE) 745 4.1 -27.2°
Enters shadow 17:10:18 55° 114° (ESE) 747 4.1 -27.2°
